Total_Precipitation_Accumulation
0.39 0.32 0.34 0.38 0.34 0.34 0.50 0.52 0.42 0.24 0.21 0.24 0.21 0.22 0.25 0.25 0.24 0.22 0.19 0.21 0.27 0.31 0.33 0.37 0.45 0.53 0.57 0.55 0.52 0.49 0.52 0.60 0.66 0.72 0.79 0.82 0.82 0.95 1.14 1.11 0.97 0.88 0.85 0.88
0.33 0.25 0.28 0.28 0.25 0.28 0.31 0.31 0.28 0.20 0.21 0.23 0.21 0.17 0.20 0.23 0.24 0.26 0.25 0.25 0.27 0.31 0.32 0.39 0.45 0.54 0.64 0.58 0.54 0.47 0.47 0.54 0.61 0.71 0.84 0.86 0.82 0.86 0.98 1.07 1.02 0.93 0.87 0.85
0.48 0.25 0.41 0.46 0.33 0.32 0.32 0.31 0.31 0.33 0.29 0.23 0.22 0.22 0.25 0.27 0.27 0.29 0.30 0.31 0.31 0.32 0.36 0.44 0.47 0.54 0.62 0.61 0.57 0.50 0.49 0.53 0.59 0.64 0.78 0.85 0.86 0.90 0.95 1.01 1.08 1.08 0.95 0.85
0.78 0.58 0.83 0.43 0.24 0.26 0.29 0.33 0.34 0.32 0.27 0.26 0.27 0.27 0.27 0.29 0.32 0.33 0.33 0.33 0.33 0.36 0.41 0.42 0.46 0.49 0.54 0.56 0.55 0.54 0.53 0.58 0.62 0.61 0.66 0.79 0.90 0.91 0.92 0.95 0.99 1.05 1.02 0.93
1.19 0.86 0.50 0.24 0.21 0.27 0.34 0.38 0.31 0.26 0.24 0.22 0.21 0.19 0.20 0.20 0.25 0.32 0.32 0.32 0.34 0.37 0.40 0.40 0.41 0.43 0.49 0.54 0.53 0.56 0.61 0.64 0.64 0.59 0.60 0.71 0.80 0.88 0.91 0.92 0.90 0.92 0.94 0.92
1.36 1.03 0.50 0.31 0.20 0.18 0.27 0.48 0.28 0.23 0.25 0.22 0.22 0.29 0.24 0.17 0.22 0.29 0.27 0.28 0.32 0.35 0.33 0.35 0.38 0.39 0.47 0.53 0.48 0.53 0.58 0.65 0.60 0.54 0.52 0.53 0.63 0.79 0.87 0.89 0.86 0.86 0.87 0.88
1.19 0.96 0.44 0.29 0.21 0.20 0.43 0.53 0.27 0.23 0.24 0.23 0.27 0.33 0.26 0.22 0.25 0.28 0.23 0.24 0.27 0.30 0.31 0.37 0.40 0.38 0.43 0.51 0.51 0.53 0.57 0.64 0.58 0.53 0.53 0.54 0.60 0.73 0.82 0.91 0.93 0.87 0.83 0.84
0.89 1.00 0.55 0.29 0.29 0.45 0.51 0.29 0.21 0.18 0.19 0.20 0.19 0.18 0.18 0.20 0.25 0.26 0.21 0.20 0.20 0.24 0.27 0.33 0.36 0.37 0.43 0.51 0.53 0.57 0.59 0.57 0.57 0.58 0.57 0.59 0.62 0.71 0.82 0.92 0.98 0.92 0.83 0.81
0.66 0.59 0.42 0.34 0.41 0.41 0.32 0.23 0.17 0.17 0.16 0.15 0.16 0.16 0.18 0.21 0.23 0.25 0.22 0.21 0.21 0.23 0.25 0.30 0.34 0.37 0.46 0.51 0.50 0.55 0.55 0.54 0.55 0.59 0.58 0.61 0.66 0.73 0.82 0.91 0.95 0.93 0.84 0.79
0.49 0.34 0.28 0.29 0.30 0.28 0.23 0.20 0.16 0.17 0.16 0.15 0.15 0.16 0.18 0.21 0.22 0.23 0.23 0.22 0.21 0.23 0.25 0.32 0.35 0.37 0.44 0.48 0.45 0.45 0.47 0.51 0.51 0.57 0.62 0.65 0.70 0.73 0.79 0.89 0.97 0.88 0.80 0.75
0.44 0.28 0.24 0.23 0.23 0.24 0.20 0.18 0.16 0.17 0.17 0.16 0.16 0.17 0.18 0.21 0.22 0.23 0.26 0.25 0.24 0.25 0.27 0.33 0.38 0.41 0.45 0.44 0.42 0.41 0.42 0.50 0.56 0.60 0.66 0.69 0.71 0.75 0.80 0.83 0.98 0.94 0.81 0.79
0.40 0.27 0.30 0.27 0.23 0.22 0.21 0.20 0.20 0.20 0.19 0.16 0.17 0.21 0.19 0.21 0.22 0.24 0.27 0.29 0.27 0.27 0.29 0.35 0.40 0.48 0.48 0.42 0.40 0.42 0.45 0.49 0.57 0.63 0.65 0.66 0.65 0.69 0.80 0.84 0.89 0.87 0.82 0.82
0.23 0.22 0.24 0.23 0.20 0.20 0.20 0.20 0.20 0.20 0.20 0.18 0.17 0.20 0.23 0.23 0.23 0.25 0.28 0.31 0.33 0.33 0.36 0.38 0.42 0.48 0.48 0.41 0.38 0.40 0.46 0.50 0.55 0.62 0.61 0.59 0.57 0.58 0.65 0.77 0.88 0.87 0.84 0.83
0.13 0.16 0.19 0.17 0.16 0.15 0.15 0.16 0.16 0.16 0.16 0.17 0.17 0.18 0.21 0.22 0.22 0.24 0.28 0.34 0.37 0.37 0.38 0.40 0.42 0.46 0.46 0.39 0.36 0.38 0.43 0.51 0.54 0.57 0.59 0.58 0.57 0.57 0.59 0.65 0.75 0.81 0.84 0.84
0.08 0.11 0.13 0.12 0.11 0.11 0.11 0.13 0.13 0.14 0.13 0.13 0.14 0.16 0.19 0.23 0.25 0.27 0.31 0.35 0.38 0.38 0.38 0.41 0.45 0.51 0.47 0.40 0.37 0.39 0.44 0.46 0.47 0.52 0.57 0.60 0.60 0.62 0.63 0.65 0.68 0.73 0.78 0.90
0.10 0.10 0.11 0.11 0.11 0.11 0.12 0.13 0.13 0.12 0.12 0.12 0.13 0.14 0.16 0.22 0.27 0.32 0.36 0.38 0.41 0.42 0.43 0.45 0.48 0.52 0.48 0.40 0.39 0.40 0.46 0.54 0.52 0.53 0.58 0.61 0.62 0.66 0.70 0.73 0.75 0.75 0.77 0.86
0.16 0.14 0.13 0.12 0.11 0.12 0.13 0.14 0.13 0.13 0.13 0.13 0.14 0.14 0.14 0.19 0.23 0.29 0.34 0.39 0.43 0.44 0.44 0.45 0.48 0.50 0.48 0.45 0.43 0.43 0.45 0.51 0.58 0.56 0.56 0.59 0.63 0.67 0.72 0.77 0.79 0.75 0.71 0.80
0.19 0.17 0.14 0.14 0.13 0.12 0.12 0.12 0.12 0.14 0.15 0.15 0.15 0.16 0.17 0.21 0.25 0.30 0.36 0.37 0.38 0.43 0.47 0.47 0.50 0.52 0.50 0.52 0.49 0.47 0.48 0.51 0.53 0.54 0.56 0.61 0.66 0.69 0.74 0.79 0.79 0.77 0.76 0.82
0.15 0.15 0.13 0.12 0.12 0.11 0.12 0.12 0.13 0.14 0.15 0.16 0.17 0.18 0.19 0.22 0.26 0.31 0.36 0.36 0.36 0.40 0.46 0.48 0.54 0.51 0.51 0.56 0.56 0.52 0.53 0.55 0.57 0.55 0.56 0.68 0.72 0.70 0.73 0.78 0.81 0.81 0.82 0.83
0.15 0.13 0.11 0.11 0.10 0.11 0.12 0.13 0.13 0.13 0.13 0.14 0.17 0.18 0.19 0.23 0.26 0.30 0.34 0.36 0.38 0.42 0.44 0.49 0.50 0.48 0.50 0.57 0.62 0.57 0.59 0.62 0.61 0.58 0.58 0.64 0.70 0.73 0.75 0.78 0.81 0.83 0.83 0.84
0.15 0.12 0.11 0.11 0.10 0.11 0.12 0.13 0.13 0.13 0.13 0.15 0.19 0.22 0.25 0.28 0.30 0.33 0.34 0.34 0.35 0.38 0.41 0.46 0.46 0.46 0.48 0.60 0.68 0.64 0.63 0.64 0.64 0.63 0.63 0.65 0.70 0.75 0.76 0.77 0.80 0.81 0.83 0.84
0.15 0.15 0.14 0.12 0.12 0.14 0.15 0.16 0.17 0.17 0.16 0.17 0.20 0.24 0.27 0.29 0.30 0.32 0.32 0.33 0.34 0.40 0.41 0.40 0.40 0.47 0.55 0.63 0.64 0.63 0.62 0.63 0.65 0.67 0.68 0.69 0.74 0.80 0.78 0.77 0.81 0.81 0.82 0.84
0.17 0.16 0.17 0.18 0.18 0.19 0.18 0.17 0.19 0.20 0.19 0.20 0.22 0.26 0.29 0.31 0.32 0.33 0.34 0.34 0.37 0.44 0.43 0.42 0.47 0.55 0.63 0.60 0.58 0.60 0.61 0.63 0.65 0.68 0.72 0.74 0.77 0.80 0.82 0.81 0.82 0.83 0.87 0.89
0.19 0.19 0.20 0.21 0.22 0.22 0.21 0.20 0.21 0.23 0.25 0.25 0.25 0.28 0.32 0.33 0.33 0.32 0.36 0.42 0.45 0.49 0.46 0.50 0.56 0.60 0.65 0.59 0.57 0.60 0.65 0.68 0.70 0.74 0.78 0.80 0.82 0.85 0.84 0.84 0.85 0.83 0.85 0.87
0.23 0.22 0.22 0.22 0.24 0.26 0.27 0.25 0.24 0.25 0.26 0.28 0.29 0.30 0.34 0.38 0.41 0.40 0.40 0.44 0.49 0.53 0.52 0.57 0.61 0.63 0.61 0.61 0.62 0.65 0.71 0.75 0.81 0.90 0.92 0.88 0.87 0.87 0.83 0.80 0.84 0.87 0.87 0.85
0.28 0.28 0.29 0.29 0.30 0.31 0.31 0.30 0.29 0.28 0.28 0.31 0.33 0.35 0.40 0.43 0.45 0.46 0.47 0.49 0.52 0.56 0.56 0.56 0.59 0.63 0.65 0.70 0.73 0.75 0.81 0.85 0.88 0.88 0.84 0.82 0.82 0.82 0.79 0.77 0.79 0.83 0.84 0.83
0.33 0.33 0.33 0.35 0.36 0.36 0.37 0.38 0.39 0.39 0.38 0.40 0.44 0.43 0.45 0.48 0.52 0.54 0.54 0.55 0.57 0.59 0.61 0.62 0.65 0.70 0.75 0.79 0.82 0.86 0.88 0.88 0.88 0.87 0.83 0.82 0.82 0.79 0.77 0.77 0.79 0.81 0.80 0.77